Regional Weather Roundup
Issued by NWS

Home | Current Version | Previous Version | Graphics & Text | Print | Product List | Glossary On
Versions: 1 2 3 4 5 6 7 8 9 10 11 12 13 14 15 16 17 18 19 20 21 22 23 24 25 26 27 28 29 30 31 32 33 34 35 36 37 38 39 40 41 42 43 44 45 46 47 48 49 50
000
ASUS43 KIND 171759
RWRIN

WEATHER ROUNDUP FOR INDIANA
NATIONAL WEATHER SERVICE INDIANAPOLIS IN
200 PM EDT THU APR 17 2014

NOTE: "FAIR" INDICATES FEW OR NO CLOUDS BELOW 12,000 FEET WITH NO
SIGNIFICANT WEATHER AND/OR OBSTRUCTIONS TO VISIBILITY.

* - STATION DOES NOT REPORT WEATHER SUCH AS PRECIPITATION OR FOG.

+ - STATION NOT QUALITY CONTROLLED BY THE NATIONAL WEATHER SERVICE.
    USE DATA WITH CAUTION...ESPECIALLY DEWPOINT AND RELATIVE
    HUMIDITY OBSERVATIONS.

INZ001>003-010>013-019-020-171900-
NORTHWEST INDIANA

CITY           SKY/WX    TMP DP  RH WIND       PRES   REMARKS
GARY /AIRPORT/ MOSUNNY   61  34  36 SW23      30.20S
RENSSELAER +   SUNNY     63  32  31 SW14G24   30.22S
VALPARAISO     SUNNY     60  33  36 SW18G25   30.21S
6HR MIN TEMP:  38; 6HR MAX TEMP:  62;


$$

LMZ046-743>745-171900-
SOUTHERN LAKE MICHIGAN

STATION/POSITION TIME  TEMP WIND        PRES
                       AIR  DIR/SP/G
                 (UTC) (F)  (DEG/KT/KT) (MB)
MICHIGAN CITY    1700   56  190/ 17/ 24   N/A

$$

INZ004-005-014>016-021>024-171900-
NORTH CENTRAL INDIANA

CITY           SKY/WX    TMP DP  RH WIND       PRES   REMARKS
GOSHEN         MOSUNNY   62  32  32 S14G24    30.22S
6HR MIN TEMP:  37; 6HR MAX TEMP:  64;

SOUTH BEND     MOSUNNY   63  32  31 SW17G29   30.22R
6HR MIN TEMP:  39; 6HR MAX TEMP:  64;


$$

INZ006>009-017-018-025>027-171900-
NORTHEAST INDIANA

CITY           SKY/WX    TMP DP  RH WIND       PRES   REMARKS
ANGOLA *+      SUNNY     61  34  36 SW12      30.23S
FORT WAYNE     PTSUNNY   66  28  24 SW18G28   30.26F
6HR MIN TEMP:  33; 6HR MAX TEMP:  66;


$$

INZ028-029-035-036-043>045-051>053-171900-
WEST CENTRAL INDIANA

CITY           SKY/WX    TMP DP  RH WIND       PRES   REMARKS
GREENCASTLE +  PTSUNNY   63  34  34 SW12G17   30.27F
LAFAYETTE      MOSUNNY   61  33  35 SW15G22   30.24S
6HR MIN TEMP:  39; 6HR MAX TEMP:  62;

TERRE HAUTE    MOSUNNY   64  34  32 SW21      30.27F
6HR MIN TEMP:  39; 6HR MAX TEMP:  64;


$$

INZ030>032-037>040-046>048-054>057-064-065-171900-
CENTRAL INDIANA

CITY           SKY/WX    TMP DP  RH WIND       PRES   REMARKS
ANDERSON       SUNNY     63  27  25 S12G23    30.28F
COLUMBUS       SUNNY     64  30  27 SW13G21   30.30F
INDIANAPOLIS   PTSUNNY   63  30  28 W17       30.26F
6HR MIN TEMP:  38; 6HR MAX TEMP:  63;

-EAGLE CREEK   PTSUNNY   62  29  28 SW10G24   30.26F
6HR MIN TEMP:  38; 6HR MAX TEMP:  63;

KOKOMO *+      SUNNY     63  36  36 SW15G21   30.25F
MT COMFORT *+  MOSUNNY   64  32  29 SW13G22   30.28F
SHELBYVILLE    SUNNY     65  32  29 SW14      30.28F
6HR MIN TEMP:  42; 6HR MAX TEMP:  66;


$$

INZ033-034-041-042-049-050-058-059-171900-
EAST CENTRAL INDIANA

CITY           SKY/WX    TMP DP  RH WIND       PRES   REMARKS
MUNCIE         SUNNY     63  32  31 SW15G21   30.27F
6HR MIN TEMP:  41; 6HR MAX TEMP:  63;


$$

INZ060-061-067>069-081>083-085>088-171900-
SOUTHWEST INDIANA

CITY           SKY/WX    TMP DP  RH WIND       PRES   REMARKS
EVANSVILLE     SUNNY     63  40  42 SW12G20   30.31F
6HR MIN TEMP:  44; 6HR MAX TEMP:  64;

HUNTINGBURG *+ SUNNY     63  39  42 SW14      30.32F
6HR MIN TEMP:  43; 6HR MAX TEMP:  63;


$$

INZ062-063-066-070>080-084-089>092-171900-
SOUTH CENTRAL AND SOUTHEAST INDIANA

CITY           SKY/WX    TMP DP  RH WIND       PRES   REMARKS
BLOOMINGTON    MOSUNNY   64  31  28 SW14G25   30.29F
6HR MIN TEMP:  41; 6HR MAX TEMP:  64;


$$




USA.gov is the U.S. government's official web portal to all federal, state and local government web resources and services.